Location: Houhaj�rvi
(61.2667°N, 23.0167°E)
Time: 17:08:53
(UTC+00:00)

SAR-Lupe-4 - Pass Details

Date: 13 December 2019
Orbit: 482 x 484 km, 98.2° (Epoch: 25 August)

Event Time Altitude Azimuth Distance (km) Brightness Sun altitude
Exits shadow 14:26:58 - 18° (NNE) 2,076 6.3 -7.6°
Reaches altitude 10° 14:27:54 10° 19° (NNE) 1,683 5.8 -7.7°
Maximum altitude 14:31:31 84° 107° (ESE) 497 3.5 -8.0°
Drops below altitude 10° 14:35:07 10° 197° (SSW) 1,670 7.1 -8.4°
Sets 14:37:10 0° 198° (SSW) 2,547 8.1 -8.6°
